{"data":{"norad_id":64418,"intl_designator":"2025-129G","name":"STARLINK-34461","alt_names":[],"object_type":"PAYLOAD","status":"ACTIVE","operator":null,"country":"US","launch_date":"2025-06-17","launch_site_code":"AFWTR","launch_vehicle":null,"mission":null,"orbit_class":"UNKNOWN","rcs_meters":null,"size_class":null,"mass_kg":null,"dimensions":null,"purposes":["comms"],"wikipedia_slug":null,"has_3d_model":false,"image_url":null,"decayed_at":null,"tle_current":{"epoch":"2026-09-20T12:04:41.712384Z","epoch_age_seconds":134099,"freshness":"FRESH","line1":"1 64418U 25129G   26263.50326056  .00008164  00000+0  28081-3 0  9998","line2":"2 64418  70.0001 301.0605 0003680 269.1019  90.9735 15.30421257 70520","mean_motion":15.30421257,"eccentricity":0.000368,"inclination_deg":70.0001,"raan_deg":301.0605,"arg_perigee_deg":269.1019,"mean_anomaly_deg":90.9735,"bstar":0.00028081,"rev_number":7052,"period_min":94.091740650725,"perigee_km":472.032725014,"apogee_km":477.0763059694,"semimajor_km":6852.6915154917,"source":"CELESTRAK","updated_at":"2026-09-21T09:00:35.347027Z"}}}